Regional Weather Roundup
Issued by NWS

Home | Current Version | Previous Version | Text Only | Print | Product List | Glossary Off
Versions: 1 2 3 4 5 6 7 8 9 10 11 12 13 14 15 16 17 18 19 20 21 22 23 24 25 26 27 28 29 30 31 32 33 34 35 36 37 38 39 40 41 42 43 44 45 46 47 48 49 50

000
ASUS43 KIND 160459
RWRIN

WEATHER ROUNDUP FOR INDIANA
NATIONAL WEATHER SERVICE INDIANAPOLIS IN
100 AM EDT TUE SEP 16 2014

NOTE: "FAIR" INDICATES FEW OR NO CLOUDS BELOW 12,000 FEET WITH NO
SIGNIFICANT WEATHER AND/OR OBSTRUCTIONS TO VISIBILITY.

* - STATION DOES NOT REPORT WEATHER SUCH AS PRECIPITATION OR FOG.

+ - STATION NOT QUALITY CONTROLLED BY THE NATIONAL WEATHER SERVICE.
    USE DATA WITH CAUTION...ESPECIALLY DEWPOINT AND RELATIVE
    HUMIDITY OBSERVATIONS.

INZ001>003-010>013-019-020-160600-
NORTHWEST INDIANA

CITY           SKY/WX    TMP DP  RH WIND       PRES   REMARKS
GARY /AIRPORT/ CLOUDY    58  54  86 NW8       30.17R
KNOX *+        CLOUDY    54  52  94 CALM      30.14R
RENSSELAER +   CLOUDY    54  54 100 CALM      30.15S FOG
VALPARAISO     CLOUDY    55  53  93 NW5       30.15S FOG

$$

LMZ046-743>745-160600-
SOUTHERN LAKE MICHIGAN

STATION/POSITION TIME  TEMP WIND        PRES
                       AIR  DIR/SP/G
                 (UTC) (F)  (DEG/KT/KT) (MB)
MICHIGAN CITY    0400   59  330/ 15/ 17   N/A

$$

INZ004-005-014>016-021>024-160600-
NORTH CENTRAL INDIANA

CITY           SKY/WX    TMP DP  RH WIND       PRES   REMARKS
GOSHEN         CLOUDY    54  52  93 NW3       30.13S FOG
SOUTH BEND     CLOUDY    54  52  93 NW3       30.15S
WARSAW +       FOG       50  50 100 W3        30.13S VSB 1/4

$$

INZ006>009-017-018-025>027-160600-
NORTHEAST INDIANA

CITY           SKY/WX    TMP DP  RH WIND       PRES   REMARKS
ANGOLA *+      CLOUDY    54  43  66 W5        30.12S
FORT WAYNE     PTCLDY    50  49  96 CALM      30.13S FOG

$$

INZ028-029-035-036-043>045-051>053-160600-
WEST CENTRAL INDIANA

CITY           SKY/WX    TMP DP  RH WIND       PRES   REMARKS
GREENCASTLE +  CLOUDY    55  55 100 N3        30.12S FOG
LAFAYETTE      CLOUDY    55  54  96 N5        30.14R
TERRE HAUTE    CLOUDY    57  56  96 N5        30.12S FOG

$$

INZ030>032-037>040-046>048-054>057-064-065-160600-
CENTRAL INDIANA

CITY           SKY/WX    TMP DP  RH WIND       PRES   REMARKS
FRANKFORT +    CLOUDY   N/A N/A N/A N3        30.14S HAZE
INDIANAPOLIS   DRIZZLE   56  55  97 NE7       30.11S FOG
-EAGLE CREEK   CLOUDY    56  54  93 MISG      30.12R FOG
KOKOMO *+      CLOUDY    55  54  94 N3        30.13S
MT COMFORT *+  CLOUDY    55 N/A N/A N6        30.12F
SHELBYVILLE    CLOUDY    58  55  90 N5        30.11S FOG
ZIONSVILLE +   CLOUDY    56  54  91 N3        30.13S FOG

$$

INZ033-034-041-042-049-050-058-059-160600-
EAST CENTRAL INDIANA

CITY           SKY/WX    TMP DP  RH WIND       PRES   REMARKS
MUNCIE         CLOUDY    56  54  93 CALM      30.12S FOG

$$

INZ060-061-067>069-081>083-085>088-160600-
SOUTHWEST INDIANA

CITY           SKY/WX    TMP DP  RH WIND       PRES   REMARKS
EVANSVILLE     CLOUDY    67  62  84 NW5       30.09S

$$

INZ062-063-066-070>080-084-089>092-160600-
SOUTH CENTRAL AND SOUTHEAST INDIANA

CITY           SKY/WX    TMP DP  RH WIND       PRES   REMARKS
BLOOMINGTON    CLOUDY    58  57  97 N7        30.11S FOG

$$




USA.gov is the U.S. government's official web portal to all federal, state and local government web resources and services.